Location: Unnamed
(47.6578°N, 23.5640°E)
Time: 21:30:11
(UTC+03:00)

ISS - Pass Details

Date: 30 March 2020
Orbit: 418 x 421 km, 51.6° (Epoch: 08 May)

Event Time Altitude Azimuth Distance (km) Brightness Sun altitude
Rises 20:22:16 0° 286° (WNW) 2,384 2.9 -5.6°
Reaches altitude 10° 20:24:27 10° 293° (WNW) 1,519 0.8 -6.0°
Maximum altitude 20:27:43 42° 7° (N) 617 -2.8 -6.5°
Drops below altitude 10° 20:30:59 10° 80° (E) 1,518 -1.5 -7.1°
Enters shadow 20:31:24 - 82° (E) 1,677 -1.3 -7.1°
